Clinton, IA

4:48 AM CDT on June 28, 2017 (GMT -0500)
Clinton Municipal

Weather History for KCWI - May, 2014

Change the Weather History Date:

Friday, May 9, 2014

  Actual Average Record
Temperature  
Mean Temperature 59 °F -  
Max Temperature 68 °F 72 °F 92 °F (1963)
Min Temperature 50 °F 47 °F 29 °F (1966)
Degree Days  
Heating Degree Days 6    
Growing Degree Days 9 (Base 50)    
Moisture  
Dew Point 47 °F    
Average Humidity 60    
Maximum Humidity 88    
Minimum Humidity 42    
Precipitation  
Precipitation 0.00 in - - ()
Sea Level Pressure  
Sea Level Pressure 29.78 in    
Wind  
Wind Speed 16 mph (WSW)    
Max Wind Speed 26 mph    
Max Gust Speed 34 mph    
Visibility 10 miles    
Events      
Averages and records for this station are not official NWS values.
T = Trace of Precipitation, MM = Missing Value Source: NWS Daily Summary

Daily Weather History Graph

Daily Weather History Graph

Search for Another Location

Airport or City:

Trip Planner

Search our weather history database for the weather conditions in past years. The results will help you decide how hot, cold, wet, or windy it might be!

Date:

Astronomy

May. 09, 2014 Rise Set
Actual Time 5:47 AM CDT 8:08 PM CDT
Civil Twilight 5:16 AM CDT 8:39 PM CDT
Nautical Twilight 4:38 AM CDT 9:18 PM CDT
Astronomical Twilight 3:55 AM CDT 10:01 PM CDT
Moon 3:01 PM CDT (5/9) 2:55 AM CDT (5/9)
Length of Visible Light 15h 23m
Length of Day
14h 20m
Waxing Gibbous, 74% of the Moon is Illuminated
May 9
Waxing Gibbous
May 14
Full
May 21
Last Quarter
May 28
New
Jun 5
First Quarter

Hourly Weather History & Observations

Time (CDT) Temp. Dew Point Humidity Pressure Visibility Wind Dir Wind Speed Gust Speed Precip Events Conditions
12:15 AM 68.0 °F 57.2 °F 68% 29.75 in 10.0 mi South 12.7 mph 18.4 mph N/A   Overcast
12:35 AM 68.0 °F 57.2 °F 68% 29.73 in 10.0 mi South 17.3 mph - N/A   Mostly Cloudy
12:55 AM 66.2 °F 57.2 °F 73% 29.73 in 10.0 mi South 16.1 mph 21.9 mph N/A   Scattered Clouds
1:15 AM 66.2 °F 57.2 °F 73% 29.72 in 10.0 mi South 16.1 mph - N/A   Clear
1:35 AM 66.2 °F 57.2 °F 73% 29.71 in 10.0 mi South 13.8 mph - N/A   Scattered Clouds
1:55 AM 66.2 °F 57.2 °F 73% 29.71 in 10.0 mi South 13.8 mph 18.4 mph N/A   Scattered Clouds
2:15 AM 66.2 °F 57.2 °F 73% 29.71 in 10.0 mi South 12.7 mph - N/A   Scattered Clouds
2:35 AM 66.2 °F 59.0 °F 78% 29.70 in 10.0 mi South 15.0 mph - N/A   Mostly Cloudy
2:55 AM 66.2 °F 59.0 °F 78% 29.70 in 10.0 mi South 13.8 mph 17.3 mph N/A   Overcast
3:15 AM 66.2 °F 59.0 °F 78% 29.70 in 10.0 mi SSW 15.0 mph 21.9 mph N/A   Overcast
3:35 AM 64.4 °F 59.0 °F 83% 29.69 in 10.0 mi South 13.8 mph - N/A   Overcast
4:15 AM 64.4 °F 59.0 °F 83% 29.69 in 10.0 mi SSW 16.1 mph 24.2 mph N/A   Overcast
4:35 AM 64.4 °F 59.0 °F 83% 29.69 in 10.0 mi South 12.7 mph 21.9 mph N/A   Mostly Cloudy
4:55 AM 64.4 °F 59.0 °F 83% 29.68 in 10.0 mi SSW 9.2 mph - N/A   Overcast
5:15 AM 64.4 °F 59.0 °F 83% 29.68 in 10.0 mi SSW 9.2 mph - N/A   Mostly Cloudy
5:35 AM 64.4 °F 60.8 °F 88% 29.68 in 10.0 mi SSW 12.7 mph - N/A   Mostly Cloudy
5:55 AM 64.4 °F 60.8 °F 88% 29.68 in 10.0 mi SSW 11.5 mph - N/A   Overcast
6:15 AM 64.4 °F 60.8 °F 88% 29.70 in 10.0 mi SW 16.1 mph - N/A   Overcast
6:35 AM 59.0 °F 51.8 °F 77% 29.72 in 10.0 mi West 18.4 mph - N/A   Overcast
6:55 AM 59.0 °F 50.0 °F 72% 29.73 in 10.0 mi WNW 23.0 mph - N/A   Overcast
7:15 AM 57.2 °F 48.2 °F 72% 29.73 in 10.0 mi West 18.4 mph - N/A   Overcast
7:35 AM 57.2 °F 46.4 °F 67% 29.74 in 7.0 mi West 20.7 mph 24.2 mph N/A   Overcast
7:55 AM 55.4 °F 44.6 °F 67% 29.76 in 10.0 mi West 24.2 mph 28.8 mph N/A   Overcast
8:15 AM 57.2 °F 46.4 °F 67% 29.76 in 10.0 mi West 20.7 mph - N/A   Mostly Cloudy
8:35 AM 57.2 °F 46.4 °F 67% 29.77 in 10.0 mi West 18.4 mph - N/A   Partly Cloudy
8:55 AM 59.0 °F 44.6 °F 59% 29.76 in 10.0 mi West 24.2 mph - N/A   Clear
9:15 AM 59.0 °F 44.6 °F 59% 29.76 in 10.0 mi West 20.7 mph - N/A   Clear
9:35 AM 60.8 °F 44.6 °F 55% 29.75 in 10.0 mi West 24.2 mph 29.9 mph N/A   Clear
9:55 AM 60.8 °F 44.6 °F 55% 29.75 in 3.0 mi WNW 21.9 mph 27.6 mph N/A   Clear
10:15 AM 60.8 °F 44.6 °F 55% 29.76 in 10.0 mi West 23.0 mph 28.8 mph N/A   Clear
10:35 AM 60.8 °F 42.8 °F 52% 29.77 in 10.0 mi West 25.3 mph 31.1 mph N/A   Clear
10:55 AM 62.6 °F 44.6 °F 52% 29.77 in 10.0 mi West 26.5 mph 32.2 mph N/A   Clear
11:15 AM 62.6 °F 44.6 °F 52% 29.77 in 10.0 mi West 23.0 mph 28.8 mph N/A   Clear
11:35 AM 62.6 °F 44.6 °F 52% 29.78 in 10.0 mi WSW 23.0 mph - N/A   Scattered Clouds
11:55 AM 62.6 °F 44.6 °F 52% 29.78 in 7.0 mi West 20.7 mph 29.9 mph N/A   Mostly Cloudy
12:15 PM 62.6 °F 44.6 °F 52% 29.78 in 10.0 mi West 19.6 mph 29.9 mph N/A   Mostly Cloudy
12:35 PM 64.4 °F 44.6 °F 49% 29.77 in 10.0 mi West 25.3 mph 34.5 mph N/A   Scattered Clouds
12:55 PM 64.4 °F 44.6 °F 49% 29.79 in 10.0 mi West 21.9 mph 31.1 mph N/A   Partly Cloudy
1:15 PM 64.4 °F 44.6 °F 49% 29.79 in 10.0 mi West 21.9 mph 29.9 mph N/A   Mostly Cloudy
1:35 PM 64.4 °F 42.8 °F 45% 29.79 in 10.0 mi West 25.3 mph 28.8 mph N/A   Mostly Cloudy
1:55 PM 64.4 °F 44.6 °F 49% 29.79 in 10.0 mi West 24.2 mph 29.9 mph N/A   Mostly Cloudy
2:15 PM 64.4 °F 44.6 °F 49% 29.79 in 10.0 mi West 20.7 mph 28.8 mph N/A   Mostly Cloudy
2:35 PM 64.4 °F 42.8 °F 45% 29.79 in 10.0 mi West 19.6 mph 27.6 mph N/A   Mostly Cloudy
2:55 PM 64.4 °F 42.8 °F 45% 29.80 in 10.0 mi West 23.0 mph 29.9 mph N/A   Mostly Cloudy
3:15 PM 64.4 °F 42.8 °F 45% 29.80 in 9.0 mi West 18.4 mph 26.5 mph N/A   Mostly Cloudy
3:35 PM 64.4 °F 42.8 °F 45% 29.81 in 9.0 mi West 19.6 mph 25.3 mph N/A   Mostly Cloudy
3:55 PM 64.4 °F 42.8 °F 45% 29.81 in 10.0 mi West 17.3 mph 29.9 mph N/A   Scattered Clouds
4:15 PM 64.4 °F 42.8 °F 45% 29.80 in 10.0 mi West 21.9 mph 27.6 mph N/A   Partly Cloudy
4:35 PM 64.4 °F 42.8 °F 45% 29.81 in 10.0 mi WNW 20.7 mph 29.9 mph N/A   Partly Cloudy
4:55 PM 64.4 °F 42.8 °F 45% 29.81 in 10.0 mi WNW 26.5 mph 33.4 mph N/A   Mostly Cloudy
5:15 PM 64.4 °F 42.8 °F 45% 29.82 in 10.0 mi West 16.1 mph 23.0 mph N/A   Scattered Clouds
5:35 PM 64.4 °F 42.8 °F 45% 29.82 in 10.0 mi West 20.7 mph 29.9 mph N/A   Partly Cloudy
5:55 PM 64.4 °F 42.8 °F 45% 29.82 in 10.0 mi West 19.6 mph 26.5 mph N/A   Partly Cloudy
6:15 PM 62.6 °F 42.8 °F 48% 29.83 in 10.0 mi WNW 23.0 mph 26.5 mph N/A   Scattered Clouds
6:35 PM 62.6 °F 41.0 °F 45% 29.83 in 10.0 mi WNW 21.9 mph - N/A   Partly Cloudy
6:55 PM 62.6 °F 39.2 °F 42% 29.83 in 10.0 mi WNW 23.0 mph 32.2 mph N/A   Partly Cloudy
7:15 PM 62.6 °F 39.2 °F 42% 29.83 in 10.0 mi West 18.4 mph 25.3 mph N/A   Partly Cloudy
7:35 PM 60.8 °F 39.2 °F 45% 29.84 in 10.0 mi West 17.3 mph 20.7 mph N/A   Clear
7:55 PM 60.8 °F 39.2 °F 45% 29.84 in 10.0 mi West 15.0 mph - N/A   Clear
8:15 PM 57.2 °F 39.2 °F 51% 29.84 in 10.0 mi West 9.2 mph - N/A   Clear
8:35 PM 55.4 °F 39.2 °F 54% 29.84 in 10.0 mi West 5.8 mph - N/A   Clear
8:55 PM 55.4 °F 39.2 °F 54% 29.86 in 10.0 mi SSW 5.8 mph - N/A   Clear
9:15 PM 53.6 °F 39.2 °F 58% 29.86 in 10.0 mi SW 3.5 mph - N/A   Clear
9:35 PM 51.8 °F 39.2 °F 62% 29.87 in 10.0 mi SSW 5.8 mph - N/A   Clear
9:55 PM 53.6 °F 39.2 °F 58% 29.87 in 10.0 mi SSW 5.8 mph - N/A   Clear
10:15 PM 53.6 °F 39.2 °F 58% 29.88 in 10.0 mi SSW 5.8 mph - N/A   Clear
10:35 PM 53.6 °F 41.0 °F 62% 29.88 in 10.0 mi SW 4.6 mph - N/A   Clear
10:55 PM 51.8 °F 41.0 °F 67% 29.88 in 10.0 mi SW 4.6 mph - N/A   Clear
11:15 PM 51.8 °F 41.0 °F 67% 29.90 in 10.0 mi South 6.9 mph - N/A   Clear
11:35 PM 50.0 °F 41.0 °F 71% 29.89 in 10.0 mi SSW 5.8 mph - N/A   Clear
11:55 PM 51.8 °F 41.0 °F 67% 29.90 in 10.0 mi SSW 6.9 mph - N/A   Clear